,,,PA_Meas_PMT16A,,PR_Meas_QMR101_102,,RH_Meas_QMH101,,SR_Meas_QMS101,,TA_Meas_QMH101,,GenWind,,GenWind,
date,time,status,PA,status,PR,status,RH,status,SR,status,TA,status,DirAvg,status,SpdAvg,
2010-04-28, 00:00:04,VALID,1002.51,VALID,0,VALID,92.6846,VALID,0,VALID,23.875,VALID,6,VALID,0,
2010-04-28, 00:01:04,VALID,1002.53,VALID,0,VALID,92.7914,VALID,0,VALID,23.9159,VALID,6,VALID,0,
2010-04-28, 00:02:04,VALID,1002.52,VALID,0,VALID,92.8601,VALID,0,VALID,23.914,VALID,6,VALID,0,
2010-04-28, 00:03:04,VALID,1002.5,VALID,0,VALID,92.8448,VALID,0,VALID,23.9354,VALID,6,VALID,0,
2010-04-28, 00:04:04,VALID,1002.5,VALID,0,VALID,92.8754,VALID,0,VALID,23.9336,VALID,6,VALID,0,
2010-04-28, 00:05:04,VALID,1002.48,VALID,0,VALID,92.8067,VALID,0,VALID,23.914,VALID,6,VALID,0,
2010-04-28, 00:06:04,VALID,1002.43,VALID,0,VALID,92.883,VALID,0,VALID,23.9159,VALID,6,VALID,0,
2010-04-28, 00:07:04,VALID,1002.45,VALID,0,VALID,92.9135,VALID,0,VALID,23.914,VALID,6,VALID,0,
2010-04-28, 00:08:04,VALID,1002.44,VALID,0,VALID,92.9288,VALID,0,VALID,23.9336,VALID,6,VALID,0,
2010-04-28, 00:09:04,VALID,1002.42,VALID,0,VALID,92.944,VALID,0,VALID,23.9531,VALID,6,VALID,0,
2010-04-28, 00:10:04,VALID,1002.42,VALID,0,VALID,92.9364,VALID,0,VALID,23.9336,VALID,6,VALID,0,
2010-04-28, 00:11:04,VALID,1002.45,VALID,0,VALID,92.9593,VALID,0,VALID,23.9549,VALID,6,VALID,0,
2010-04-28, 00:12:04,VALID,1002.44,VALID,0,VALID,92.9288,VALID,0,VALID,23.9336,VALID,51,VALID,0.231641,
2010-04-28, 00:13:04,VALID,1002.44,VALID,0,VALID,92.8906,VALID,0,VALID,23.914,VALID,87,VALID,0.65625,
2010-04-28, 00:14:04,VALID,1002.44,VALID,0,VALID,92.8601,VALID,0,VALID,23.9354,VALID,87,VALID,0.682031,
2010-04-28, 00:15:04,VALID,1002.42,VALID,0,VALID,92.7228,VALID,0,VALID,23.914,VALID,87,VALID,0.604297,
2010-04-28, 00:16:04,VALID,1002.41,VALID,0,VALID,92.5931,VALID,0,VALID,23.875,VALID,87,VALID,0.567969,
2010-04-28, 00:17:04,VALID,1002.42,VALID,0,VALID,92.5397,VALID,0,VALID,23.875,VALID,87,VALID,0.401563,
2010-04-28, 00:18:04,VALID,1002.39,VALID,0,VALID,92.4557,VALID,0,VALID,23.836,VALID,87,VALID,0.242188,
2010-04-28, 00:19:04,VALID,1002.36,VALID,0,VALID,92.3031,VALID,0,VALID,23.797,VALID,87,VALID,0,
2010-04-28, 00:20:04,VALID,1002.34,VALID,0,VALID,92.2803,VALID,0,VALID,23.7988,VALID,87,VALID,0,
2010-04-28, 00:21:04,VALID,1002.35,VALID,0,VALID,92.3413,VALID,0,VALID,23.7793,VALID,87,VALID,0,
2010-04-28, 00:22:04,VALID,1002.35,VALID,0,VALID,92.4557,VALID,0.112286,VALID,23.7775,VALID,87,VALID,0,
2010-04-28, 00:23:04,VALID,1002.34,VALID,0,VALID,92.5473,VALID,0,VALID,23.7988,VALID,87,VALID,0,
2010-04-28, 00:24:04,VALID,1002.35,VALID,0,VALID,92.616,VALID,0,VALID,23.8183,VALID,87,VALID,0,
2010-04-28, 00:25:04,VALID,1002.33,VALID,0,VALID,92.6694,VALID,0,VALID,23.797,VALID,87,VALID,0,
2010-04-28, 00:26:04,VALID,1002.33,VALID,0,VALID,92.6923,VALID,0,VALID,23.8378,VALID,87,VALID,0,
2010-04-28, 00:27:04,VALID,1002.31,VALID,0,VALID,92.7151,VALID,0,VALID,23.8165,VALID,87,VALID,0,
2010-04-28, 00:28:04,VALID,1002.33,VALID,0,VALID,92.6923,VALID,0,VALID,23.8183,VALID,174,VALID,1.1168,
2010-04-28, 00:29:04,VALID,1002.31,VALID,0,VALID,92.7304,VALID,0,VALID,23.8573,VALID,166,VALID,1.35391,
2010-04-28, 00:30:04,VALID,1002.28,VALID,0,VALID,92.6999,VALID,0,VALID,23.8963,VALID,160,VALID,1.16602,
2010-04-28, 00:31:04,VALID,1002.26,VALID,0,VALID,92.5091,VALID,0,VALID,23.9549,VALID,163,VALID,1.34844,
2010-04-28, 00:32:04,VALID,1002.24,VALID,0,VALID,92.3108,VALID,0,VALID,23.9921,VALID,169,VALID,1.43906,
2010-04-28, 00:33:04,VALID,1002.19,VALID,0,VALID,92.0285,VALID,0,VALID,24.0329,VALID,159,VALID,1.36758,
2010-04-28, 00:34:04,VALID,1002.17,VALID,0,VALID,91.6088,VALID,0,VALID,24.0525,VALID,157,VALID,1.49375,
2010-04-28, 00:35:04,VALID,1002.16,VALID,0,VALID,91.2731,VALID,0,VALID,24.072,VALID,157,VALID,1.68359,
2010-04-28, 00:36:04,VALID,1002.14,VALID,0,VALID,91.0137,VALID,0,VALID,24.0897,VALID,162,VALID,1.50977,
2010-04-28, 00:37:04,VALID,1002.14,VALID,0,VALID,90.8154,VALID,0,VALID,24.1092,VALID,173,VALID,1.58203,
2010-04-28, 00:38:04,VALID,1002.11,VALID,0,VALID,90.6628,VALID,0,VALID,24.15,VALID,168,VALID,1.48516,
2010-04-28, 00:39:04,VALID,1002.11,VALID,0,VALID,90.4873,VALID,0,VALID,24.1696,VALID,173,VALID,1.6293,
2010-04-28, 00:40:04,VALID,1002.08,VALID,0,VALID,90.3042,VALID,0,VALID,24.1482,VALID,168,VALID,1.86953,
2010-04-28, 00:41:04,VALID,1002.01,VALID,0,VALID,90.2737,VALID,0,VALID,24.1677,VALID,161,VALID,1.78516,
2010-04-28, 00:42:04,VALID,1001.96,VALID,0,VALID,90.266,VALID,0,VALID,24.1872,VALID,180,VALID,1.70547,
2010-04-28, 00:43:04,VALID,1001.97,VALID,0,VALID,90.1287,VALID,0,VALID,24.2067,VALID,171,VALID,1.7125,
2010-04-28, 00:44:04,VALID,1001.91,VALID,0,VALID,89.9456,VALID,0,VALID,24.2281,VALID,173,VALID,1.82461,
2010-04-28, 00:45:04,VALID,1001.89,VALID,0,VALID,89.854,VALID,0,VALID,24.2086,VALID,163,VALID,1.57461,
2010-04-28, 00:46:04,VALID,1001.87,VALID,0,VALID,89.9837,VALID,0,VALID,24.1891,VALID,157,VALID,1.39805,
2010-04-28, 00:47:04,VALID,1001.88,VALID,0,VALID,90.1668,VALID,0,VALID,24.1482,VALID,155,VALID,1.54062,
2010-04-28, 00:48:04,VALID,1001.82,VALID,0,VALID,90.4491,VALID,0,VALID,24.1287,VALID,159,VALID,1.61875,
2010-04-28, 00:49:04,VALID,1001.82,VALID,0,VALID,90.6017,VALID,0,VALID,24.0915,VALID,154,VALID,1.33906,
2010-04-28, 00:50:04,VALID,1001.81,VALID,0,VALID,90.8306,VALID,0,VALID,24.0311,VALID,161,VALID,1.1875,
2010-04-28, 00:51:04,VALID,1001.78,VALID,0,VALID,91.0137,VALID,0,VALID,24.0329,VALID,167,VALID,1.06758,
2010-04-28, 00:52:04,VALID,1001.77,VALID,0,VALID,91.1892,VALID,0,VALID,23.9726,VALID,165,VALID,1.03984,
2010-04-28, 00:53:04,VALID,1001.76,VALID,0,VALID,91.2579,VALID,0,VALID,23.9726,VALID,165,VALID,1.05508,
2010-04-28, 00:54:04,VALID,1001.7,VALID,0,VALID,91.3494,VALID,0,VALID,23.9939,VALID,165,VALID,0.937109,
2010-04-28, 00:55:04,VALID,1001.71,VALID,0,VALID,91.441,VALID,0,VALID,23.9726,VALID,166,VALID,1.04609,
2010-04-28, 00:56:04,VALID,1001.67,VALID,0,VALID,91.5173,VALID,0,VALID,23.9726,VALID,169,VALID,0.642187,
2010-04-28, 00:57:04,VALID,1001.67,VALID,0,VALID,91.5707,VALID,0,VALID,23.9726,VALID,169,VALID,0.717578,
2010-04-28, 00:58:04,VALID,1001.63,VALID,0,VALID,91.5173,VALID,0,VALID,23.9531,VALID,169,VALID,0.495313,
2010-04-28, 00:59:04,VALID,1001.65,VALID,0,VALID,91.6623,VALID,0,VALID,23.9531,VALID,168,VALID,0.476953,
2010-04-28, 01:00:04,VALID,1001.64,VALID,0,VALID,91.7157,VALID,0,VALID,23.9549,VALID,166,VALID,0,
2010-04-28, 01:01:04,VALID,1001.66,VALID,0,VALID,91.6088,VALID,0,VALID,23.9354,VALID,165,VALID,0,
2010-04-28, 01:02:04,VALID,1001.66,VALID,0,VALID,91.5402,VALID,0,VALID,23.8963,VALID,159,VALID,0,
2010-04-28, 01:03:04,VALID,1001.64,VALID,0,VALID,91.6546,VALID,0,VALID,23.8768,VALID,159,VALID,0,
2010-04-28, 01:04:04,VALID,1001.63,VALID,0,VALID,91.7691,VALID,0,VALID,23.8963,VALID,142,VALID,0.445703,
2010-04-28, 01:05:04,VALID,1001.63,VALID,0,VALID,91.7538,VALID,0,VALID,23.8555,VALID,142,VALID,0.4,
2010-04-28, 01:06:04,VALID,1001.62,VALID,0,VALID,91.7996,VALID,0,VALID,23.8573,VALID,142,VALID,0.443359,
2010-04-28, 01:07:04,VALID,1001.63,VALID,0,VALID,91.9217,VALID,0,VALID,23.8573,VALID,133,VALID,0.741797,
2010-04-28, 01:08:04,VALID,1001.62,VALID,0,VALID,91.9522,VALID,0,VALID,23.8165,VALID,129,VALID,0.800391,
2010-04-28, 01:09:04,VALID,1001.57,VALID,0,VALID,91.9903,VALID,0,VALID,23.8165,VALID,128,VALID,0.747656,
2010-04-28, 01:10:04,VALID,1001.59,VALID,0,VALID,92.0361,VALID,0,VALID,23.8183,VALID,128,VALID,0.859375,
2010-04-28, 01:11:04,VALID,1001.55,VALID,0,VALID,92.0666,VALID,0,VALID,23.797,VALID,128,VALID,0.780078,
2010-04-28, 01:12:04,VALID,1001.55,VALID,0,VALID,92.0895,VALID,0.112286,VALID,23.7775,VALID,128,VALID,0.903125,
2010-04-28, 01:13:04,VALID,1001.52,VALID,0,VALID,92.1124,VALID,0,VALID,23.7988,VALID,128,VALID,0.788281,
2010-04-28, 01:14:04,VALID,1001.53,VALID,0,VALID,92.12,VALID,0,VALID,23.7793,VALID,127,VALID,0.703906,
2010-04-28, 01:15:04,VALID,1001.52,VALID,0,VALID,92.2268,VALID,0,VALID,23.7988,VALID,127,VALID,0.745313,
2010-04-28, 01:16:04,VALID,1001.55,VALID,0,VALID,92.2345,VALID,0,VALID,23.7988,VALID,125,VALID,0.541016,
2010-04-28, 01:17:04,VALID,1001.53,VALID,0,VALID,92.2116,VALID,0.112286,VALID,23.7988,VALID,122,VALID,0.325391,
2010-04-28, 01:18:04,VALID,1001.52,VALID,0,VALID,92.1353,VALID,0,VALID,23.7579,VALID,122,VALID,0,
2010-04-28, 01:19:04,VALID,1001.51,VALID,0,VALID,92.0895,VALID,0,VALID,23.7189,VALID,154,VALID,0.00664063,
2010-04-28, 01:20:04,VALID,1001.56,VALID,0,VALID,92.0285,VALID,0.112286,VALID,23.7012,VALID,283,VALID,0.659766,
2010-04-28, 01:21:04,VALID,1001.53,VALID,0,VALID,92.059,VALID,0,VALID,23.6817,VALID,287,VALID,0.661719,
2010-04-28, 01:22:04,VALID,1001.5,VALID,0,VALID,92.0666,VALID,0,VALID,23.6214,VALID,287,VALID,0.495703,
2010-04-28, 01:23:04,VALID,1001.53,VALID,0,VALID,92.2803,VALID,0.112286,VALID,23.6409,VALID,286,VALID,0.0289063,
2010-04-28, 01:24:04,VALID,1001.53,VALID,0,VALID,92.2421,VALID,0,VALID,23.6622,VALID,287,VALID,0,
2010-04-28, 01:25:04,VALID,1001.5,VALID,0,VALID,92.4405,VALID,0,VALID,23.6409,VALID,287,VALID,0,
2010-04-28, 01:26:04,VALID,1001.53,VALID,0,VALID,92.471,VALID,0,VALID,23.6604,VALID,287,VALID,0,
2010-04-28, 01:27:04,VALID,1001.51,VALID,0,VALID,92.4939,VALID,0,VALID,23.6409,VALID,287,VALID,0,
2010-04-28, 01:28:04,VALID,1001.48,VALID,0,VALID,92.5015,VALID,0,VALID,23.6409,VALID,287,VALID,0,
2010-04-28, 01:29:04,VALID,1001.47,VALID,0,VALID,92.5702,VALID,0,VALID,23.6604,VALID,287,VALID,0,
2010-04-28, 01:30:04,VALID,1001.51,VALID,0,VALID,92.6083,VALID,0.112286,VALID,23.6604,VALID,286,VALID,0,
2010-04-28, 01:31:04,VALID,1001.51,VALID,0,VALID,92.6388,VALID,0,VALID,23.6799,VALID,286,VALID,0,
2010-04-28, 01:32:04,VALID,1001.52,VALID,0,VALID,92.6694,VALID,0,VALID,23.6994,VALID,288,VALID,0,
2010-04-28, 01:33:04,VALID,1001.5,VALID,0,VALID,92.5397,VALID,0,VALID,23.6799,VALID,289,VALID,0,
2010-04-28, 01:34:04,VALID,1001.52,VALID,0,VALID,92.4939,VALID,0,VALID,23.7207,VALID,289,VALID,0,
2010-04-28, 01:35:04,VALID,1001.51,VALID,0,VALID,92.4557,VALID,0,VALID,23.7012,VALID,50,VALID,0,
2010-04-28, 01:36:04,VALID,1001.51,VALID,0,VALID,92.2574,VALID,0.112286,VALID,23.6604,VALID,50,VALID,0,
2010-04-28, 01:37:04,VALID,1001.52,VALID,0,VALID,92.2726,VALID,0,VALID,23.6817,VALID,50,VALID,0,
2010-04-28, 01:38:04,VALID,1001.53,VALID,0,VALID,92.2497,VALID,0,VALID,23.6604,VALID,50,VALID,0,
2010-04-28, 01:39:04,VALID,1001.52,VALID,0,VALID,92.1658,VALID,0,VALID,23.6409,VALID,50,VALID,0,
2010-04-28, 01:40:04,VALID,1001.52,VALID,0,VALID,92.1048,VALID,0.112286,VALID,23.6409,VALID,50,VALID,0,
2010-04-28, 01:41:04,VALID,1001.51,VALID,0,VALID,92.1353,VALID,0.112286,VALID,23.6019,VALID,50,VALID,0,
2010-04-28, 01:42:04,VALID,1001.47,VALID,0,VALID,92.2803,VALID,0,VALID,23.6214,VALID,50,VALID,0,
2010-04-28, 01:43:04,VALID,1001.48,VALID,0,VALID,92.3031,VALID,0.112286,VALID,23.6214,VALID,50,VALID,0,
2010-04-28, 01:44:04,VALID,1001.47,VALID,0,VALID,92.2803,VALID,0,VALID,23.6427,VALID,50,VALID,0,
2010-04-28, 01:45:04,VALID,1001.43,VALID,0,VALID,92.1887,VALID,0,VALID,23.6019,VALID,50,VALID,0,
2010-04-28, 01:46:04,VALID,1001.48,VALID,0,VALID,92.1048,VALID,0,VALID,23.5628,VALID,50,VALID,0,
2010-04-28, 01:47:04,VALID,1001.46,VALID,0,VALID,92.0743,VALID,0,VALID,23.5433,VALID,50,VALID,0,
2010-04-28, 01:48:04,VALID,1001.47,VALID,0,VALID,92.1582,VALID,0,VALID,23.5238,VALID,50,VALID,0,
2010-04-28, 01:49:04,VALID,1001.47,VALID,0,VALID,92.2192,VALID,0.112286,VALID,23.5238,VALID,50,VALID,0,
2010-04-28, 01:50:04,VALID,1001.46,VALID,0,VALID,92.1734,VALID,0.112286,VALID,23.5043,VALID,50,VALID,0,
2010-04-28, 01:51:04,VALID,1001.44,VALID,0,VALID,92.2345,VALID,0,VALID,23.5256,VALID,50,VALID,0,
2010-04-28, 01:52:04,VALID,1001.42,VALID,0,VALID,92.3031,VALID,0,VALID,23.5043,VALID,50,VALID,0,
2010-04-28, 01:53:04,VALID,1001.4,VALID,0,VALID,92.3184,VALID,0,VALID,23.5043,VALID,50,VALID,0,
2010-04-28, 01:54:04,VALID,1001.37,VALID,0,VALID,92.3184,VALID,0,VALID,23.5256,VALID,50,VALID,0,
2010-04-28, 01:55:04,VALID,1001.39,VALID,0,VALID,92.2726,VALID,0,VALID,23.4848,VALID,50,VALID,0,
2010-04-28, 01:56:04,VALID,1001.36,VALID,0,VALID,92.1963,VALID,0,VALID,23.4458,VALID,50,VALID,0,
2010-04-28, 01:57:04,VALID,1001.35,VALID,0,VALID,92.1887,VALID,0,VALID,23.4263,VALID,50,VALID,0,
2010-04-28, 01:58:04,VALID,1001.32,VALID,0,VALID,92.1887,VALID,0,VALID,23.4263,VALID,50,VALID,0,
2010-04-28, 01:59:04,VALID,1001.3,VALID,0,VALID,92.2726,VALID,0,VALID,23.4067,VALID,50,VALID,0,
2010-04-28, 02:00:04,VALID,1001.33,VALID,0,VALID,92.3642,VALID,0,VALID,23.428,VALID,50,VALID,0,
2010-04-28, 02:01:04,VALID,1001.3,VALID,0,VALID,92.4328,VALID,0,VALID,23.4067,VALID,50,VALID,0,
2010-04-28, 02:02:04,VALID,1001.34,VALID,0,VALID,92.471,VALID,0,VALID,23.4067,VALID,50,VALID,0,
2010-04-28, 02:03:04,VALID,1001.33,VALID,0,VALID,92.4786,VALID,0,VALID,23.4067,VALID,50,VALID,0,
2010-04-28, 02:04:04,VALID,1001.35,VALID,0,VALID,92.532,VALID,0,VALID,23.4067,VALID,50,VALID,0,
2010-04-28, 02:05:04,VALID,1001.31,VALID,0,VALID,92.5397,VALID,0,VALID,23.4067,VALID,50,VALID,0,
2010-04-28, 02:06:04,VALID,1001.36,VALID,0,VALID,92.5549,VALID,0,VALID,23.428,VALID,50,VALID,0,
2010-04-28, 02:07:04,VALID,1001.36,VALID,0,VALID,92.5931,VALID,0,VALID,23.428,VALID,50,VALID,0,
2010-04-28, 02:08:04,VALID,1001.34,VALID,0,VALID,92.6236,VALID,0,VALID,23.4067,VALID,50,VALID,0,
2010-04-28, 02:09:04,VALID,1001.37,VALID,0,VALID,92.6694,VALID,0,VALID,23.4263,VALID,50,VALID,0,
2010-04-28, 02:10:04,VALID,1001.35,VALID,0,VALID,92.7228,VALID,0,VALID,23.4263,VALID,50,VALID,0,
2010-04-28, 02:11:04,VALID,1001.36,VALID,0,VALID,92.6923,VALID,0,VALID,23.4458,VALID,50,VALID,0,
2010-04-28, 02:12:04,VALID,1001.35,VALID,0,VALID,92.5549,VALID,0,VALID,23.428,VALID,50,VALID,0,
2010-04-28, 02:13:04,VALID,1001.36,VALID,0,VALID,92.6617,VALID,0,VALID,23.3872,VALID,50,VALID,0,
2010-04-28, 02:14:04,VALID,1001.36,VALID,0,VALID,92.6236,VALID,0,VALID,23.3872,VALID,50,VALID,0,
2010-04-28, 02:15:04,VALID,1001.35,VALID,0,VALID,92.6923,VALID,0,VALID,23.4085,VALID,50,VALID,0,
2010-04-28, 02:16:04,VALID,1001.36,VALID,0,VALID,92.6999,VALID,0,VALID,23.4085,VALID,50,VALID,0,
2010-04-28, 02:17:04,VALID,1001.35,VALID,0,VALID,92.6007,VALID,0,VALID,23.389,VALID,50,VALID,0,
2010-04-28, 02:18:04,VALID,1001.36,VALID,0,VALID,92.7304,VALID,0,VALID,23.389,VALID,50,VALID,0,
2010-04-28, 02:19:04,VALID,1001.4,VALID,0,VALID,92.7991,VALID,0,VALID,23.428,VALID,50,VALID,0,
2010-04-28, 02:20:04,VALID,1001.39,VALID,0,VALID,92.8067,VALID,0,VALID,23.428,VALID,50,VALID,0,
2010-04-28, 02:21:04,VALID,1001.38,VALID,0,VALID,92.7762,VALID,0,VALID,23.428,VALID,50,VALID,0,
2010-04-28, 02:22:04,VALID,1001.39,VALID,0,VALID,92.6846,VALID,0,VALID,23.4067,VALID,50,VALID,0.773828,
2010-04-28, 02:23:04,VALID,1001.4,VALID,0,VALID,92.5778,VALID,0,VALID,23.3872,VALID,42,VALID,0.979297,
2010-04-28, 02:24:04,VALID,1001.42,VALID,0,VALID,92.4557,VALID,0,VALID,23.3695,VALID,41,VALID,1.00937,
2010-04-28, 02:25:04,VALID,1001.41,VALID,0,VALID,92.3871,VALID,0,VALID,23.2897,VALID,41,VALID,1.03984,
2010-04-28, 02:26:04,VALID,1001.41,VALID,0,VALID,92.471,VALID,0,VALID,23.2507,VALID,41,VALID,0.998047,
2010-04-28, 02:27:04,VALID,1001.41,VALID,0,VALID,92.41,VALID,0,VALID,23.2312,VALID,41,VALID,0.878125,
2010-04-28, 02:28:04,VALID,1001.4,VALID,0,VALID,92.4557,VALID,0,VALID,23.2134,VALID,41,VALID,0.697266,
2010-04-28, 02:29:04,VALID,1001.47,VALID,0,VALID,92.471,VALID,0,VALID,23.1744,VALID,41,VALID,0.510938,
2010-04-28, 02:30:04,VALID,1001.45,VALID,0,VALID,92.5244,VALID,0,VALID,23.1549,VALID,41,VALID,0.612109,
2010-04-28, 02:31:04,VALID,1001.46,VALID,0,VALID,92.6388,VALID,0,VALID,23.1549,VALID,41,VALID,0.6375,
2010-04-28, 02:32:04,VALID,1001.46,VALID,0,VALID,92.7762,VALID,0,VALID,23.1549,VALID,41,VALID,0.637109,
2010-04-28, 02:33:04,VALID,1001.46,VALID,0,VALID,92.8906,VALID,0,VALID,23.1744,VALID,41,VALID,0.578906,
2010-04-28, 02:34:04,VALID,1001.46,VALID,0,VALID,92.9059,VALID,0,VALID,23.1744,VALID,41,VALID,0.503125,
2010-04-28, 02:35:04,VALID,1001.45,VALID,0,VALID,92.9517,VALID,0,VALID,23.2134,VALID,41,VALID,0.3625,
2010-04-28, 02:36:04,VALID,1001.45,VALID,0,VALID,92.9517,VALID,0,VALID,23.1939,VALID,41,VALID,0,
2010-04-28, 02:37:04,VALID,1001.43,VALID,0,VALID,92.9059,VALID,0,VALID,23.1726,VALID,41,VALID,0,
2010-04-28, 02:38:04,VALID,1001.45,VALID,0,VALID,92.944,VALID,0,VALID,23.1744,VALID,41,VALID,0,
2010-04-28, 02:39:04,VALID,1001.4,VALID,0,VALID,92.9745,VALID,0,VALID,23.1939,VALID,41,VALID,0,
2010-04-28, 02:40:04,VALID,1001.41,VALID,0,VALID,93.0661,VALID,0,VALID,23.1726,VALID,41,VALID,0,
2010-04-28, 02:41:04,VALID,1001.38,VALID,0,VALID,93.0814,VALID,0,VALID,23.2134,VALID,41,VALID,0,
2010-04-28, 02:42:04,VALID,1001.39,VALID,0,VALID,93.1271,VALID,0,VALID,23.1921,VALID,41,VALID,0,
2010-04-28, 02:43:04,VALID,1001.33,VALID,0,VALID,93.0814,VALID,0,VALID,23.1939,VALID,41,VALID,0,
2010-04-28, 02:44:04,VALID,1001.36,VALID,0,VALID,93.0585,VALID,0,VALID,23.1336,VALID,41,VALID,0,
2010-04-28, 02:45:04,VALID,1001.33,VALID,0,VALID,93.0661,VALID,0,VALID,23.1531,VALID,41,VALID,0,
2010-04-28, 02:46:04,VALID,1001.33,VALID,0,VALID,93.0585,VALID,0,VALID,23.1549,VALID,41,VALID,0,
2010-04-28, 02:47:04,VALID,1001.36,VALID,0,VALID,93.1882,VALID,0,VALID,23.1939,VALID,41,VALID,0,
2010-04-28, 02:48:04,VALID,1001.35,VALID,0,VALID,93.1729,VALID,0,VALID,23.2134,VALID,41,VALID,0,
2010-04-28, 02:49:04,VALID,1001.34,VALID,0,VALID,93.1729,VALID,0,VALID,23.1939,VALID,41,VALID,0,
2010-04-28, 02:50:04,VALID,1001.34,VALID,0,VALID,93.2034,VALID,0,VALID,23.1726,VALID,41,VALID,0,
2010-04-28, 02:51:04,VALID,1001.34,VALID,0,VALID,93.1805,VALID,0,VALID,23.1726,VALID,41,VALID,0,
2010-04-28, 02:52:04,VALID,1001.32,VALID,0,VALID,93.0814,VALID,0,VALID,23.1549,VALID,41,VALID,0,
2010-04-28, 02:53:04,VALID,1001.34,VALID,0,VALID,93.0203,VALID,0,VALID,23.0964,VALID,41,VALID,0,
2010-04-28, 02:54:04,VALID,1001.29,VALID,0,VALID,93.1577,VALID,0,VALID,23.0751,VALID,41,VALID,0,
2010-04-28, 02:55:04,VALID,1001.3,VALID,0,VALID,93.2492,VALID,0,VALID,23.0946,VALID,93,VALID,0,
2010-04-28, 02:56:04,VALID,1001.3,VALID,0,VALID,93.3103,VALID,0,VALID,23.1336,VALID,93,VALID,0,
2010-04-28, 02:57:04,VALID,1001.32,VALID,0,VALID,93.3103,VALID,0,VALID,23.1549,VALID,93,VALID,0,
2010-04-28, 02:58:04,VALID,1001.28,VALID,0,VALID,93.2568,VALID,0,VALID,23.1336,VALID,93,VALID,0,
2010-04-28, 02:59:04,VALID,1001.29,VALID,0,VALID,93.234,VALID,0,VALID,23.1336,VALID,93,VALID,0,
2010-04-28, 03:00:04,VALID,1001.28,VALID,0,VALID,93.1729,VALID,0.112286,VALID,23.1336,VALID,93,VALID,0,
2010-04-28, 03:01:04,VALID,1001.28,VALID,0,VALID,93.1653,VALID,0,VALID,23.1354,VALID,93,VALID,0,
2010-04-28, 03:02:04,VALID,1001.28,VALID,0,VALID,93.1958,VALID,0,VALID,23.1141,VALID,93,VALID,0,
2010-04-28, 03:03:04,VALID,1001.27,VALID,0,VALID,93.1729,VALID,0,VALID,23.1336,VALID,93,VALID,0,
2010-04-28, 03:04:04,VALID,1001.26,VALID,0,VALID,93.15,VALID,0,VALID,23.1354,VALID,93,VALID,0,
2010-04-28, 03:05:04,VALID,1001.24,VALID,0,VALID,93.1195,VALID,0,VALID,23.1354,VALID,93,VALID,0,
2010-04-28, 03:06:04,VALID,1001.24,VALID,0,VALID,93.15,VALID,0,VALID,23.1549,VALID,93,VALID,0,
2010-04-28, 03:07:05,VALID,1001.22,VALID,0,VALID,93.15,VALID,0,VALID,23.1336,VALID,93,VALID,0,
2010-04-28, 03:08:05,VALID,1001.21,VALID,0,VALID,93.1271,VALID,0,VALID,23.1744,VALID,93,VALID,0,
2010-04-28, 03:09:05,VALID,1001.18,VALID,0,VALID,93.1424,VALID,0,VALID,23.1531,VALID,93,VALID,0,
2010-04-28, 03:10:05,VALID,1001.2,VALID,0,VALID,93.1577,VALID,0,VALID,23.1939,VALID,93,VALID,0,
2010-04-28, 03:11:05,VALID,1001.22,VALID,0,VALID,93.1958,VALID,0,VALID,23.1939,VALID,93,VALID,0,
2010-04-28, 03:12:05,VALID,1001.22,VALID,0,VALID,93.1958,VALID,0,VALID,23.2117,VALID,93,VALID,0,
2010-04-28, 03:13:05,VALID,1001.24,VALID,0,VALID,93.2416,VALID,0,VALID,23.2719,VALID,93,VALID,0,
2010-04-28, 03:14:05,VALID,1001.24,VALID,0,VALID,93.1729,VALID,0,VALID,23.311,VALID,93,VALID,0,
2010-04-28, 03:15:05,VALID,1001.25,VALID,0,VALID,93.1271,VALID,0,VALID,23.311,VALID,93,VALID,0,
2010-04-28, 03:16:05,VALID,1001.24,VALID,0,VALID,93.0661,VALID,0,VALID,23.311,VALID,93,VALID,0,
2010-04-28, 03:17:05,VALID,1001.25,VALID,0,VALID,92.9593,VALID,0,VALID,23.2897,VALID,93,VALID,0,
2010-04-28, 03:18:05,VALID,1001.27,VALID,0,VALID,92.8525,VALID,0,VALID,23.2507,VALID,93,VALID,0,
2010-04-28, 03:19:05,VALID,1001.24,VALID,0,VALID,92.7838,VALID,0,VALID,23.2329,VALID,93,VALID,0,
2010-04-28, 03:20:05,VALID,1001.26,VALID,0,VALID,92.738,VALID,0,VALID,23.2134,VALID,93,VALID,0,
2010-04-28, 03:21:05,VALID,1001.24,VALID,0,VALID,92.7228,VALID,0,VALID,23.1939,VALID,93,VALID,0,
2010-04-28, 03:22:05,VALID,1001.27,VALID,0,VALID,92.7457,VALID,0,VALID,23.1726,VALID,93,VALID,0,
2010-04-28, 03:23:05,VALID,1001.24,VALID,0,VALID,92.8372,VALID,0,VALID,23.2134,VALID,93,VALID,0,
2010-04-28, 03:24:05,VALID,1001.29,VALID,0,VALID,92.6617,VALID,0,VALID,23.1531,VALID,93,VALID,0,
2010-04-28, 03:25:05,VALID,1001.28,VALID,0,VALID,92.7151,VALID,0,VALID,23.1549,VALID,93,VALID,0,
2010-04-28, 03:26:05,VALID,1001.28,VALID,0,VALID,92.8143,VALID,0.112286,VALID,23.1531,VALID,93,VALID,0,
2010-04-28, 03:27:05,VALID,1001.31,VALID,0,VALID,92.7914,VALID,0,VALID,23.1549,VALID,93,VALID,0,
2010-04-28, 03:28:05,VALID,1001.3,VALID,0,VALID,92.7609,VALID,0,VALID,23.1336,VALID,79,VALID,0,
2010-04-28, 03:29:05,VALID,1001.35,VALID,0,VALID,92.6617,VALID,0,VALID,23.1159,VALID,75,VALID,0,
2010-04-28, 03:30:05,VALID,1001.33,VALID,0,VALID,92.7609,VALID,0,VALID,23.1336,VALID,75,VALID,0,
2010-04-28, 03:31:05,VALID,1001.32,VALID,0,VALID,92.7304,VALID,0,VALID,23.1726,VALID,75,VALID,0,
2010-04-28, 03:32:05,VALID,1001.29,VALID,0,VALID,92.7609,VALID,0,VALID,23.1762,VALID,75,VALID,0,
2010-04-28, 03:33:05,VALID,1001.28,VALID,0,VALID,92.6923,VALID,0,VALID,23.1957,VALID,75,VALID,0,
2010-04-28, 03:34:05,VALID,1001.28,VALID,0,VALID,92.5778,VALID,0,VALID,23.1957,VALID,75,VALID,0,
2010-04-28, 03:35:05,VALID,1001.28,VALID,0,VALID,92.6083,VALID,0,VALID,23.1957,VALID,75,VALID,0,
2010-04-28, 03:36:05,VALID,1001.26,VALID,0,VALID,92.4939,VALID,0,VALID,23.1744,VALID,75,VALID,0,
2010-04-28, 03:37:05,VALID,1001.24,VALID,0,VALID,92.3413,VALID,0,VALID,23.1354,VALID,75,VALID,0,
2010-04-28, 03:38:05,VALID,1001.26,VALID,0,VALID,92.4863,VALID,0,VALID,23.1566,VALID,75,VALID,0,
2010-04-28, 03:39:05,VALID,1001.24,VALID,0,VALID,92.4634,VALID,0,VALID,23.1176,VALID,75,VALID,0,
2010-04-28, 03:40:05,VALID,1001.25,VALID,0,VALID,92.4405,VALID,0,VALID,23.1176,VALID,75,VALID,0,
2010-04-28, 03:41:05,VALID,1001.24,VALID,0,VALID,92.4176,VALID,0,VALID,23.0981,VALID,75,VALID,0,
2010-04-28, 03:42:05,VALID,1001.25,VALID,0,VALID,92.4939,VALID,0,VALID,23.0378,VALID,75,VALID,0,
2010-04-28, 03:43:05,VALID,1001.26,VALID,0,VALID,92.5931,VALID,0,VALID,23.0573,VALID,75,VALID,0,
2010-04-28, 03:44:05,VALID,1001.27,VALID,0,VALID,92.6541,VALID,0,VALID,23.0591,VALID,75,VALID,0,
2010-04-28, 03:45:05,VALID,1001.27,VALID,0,VALID,92.8372,VALID,0,VALID,23.0981,VALID,75,VALID,0,
2010-04-28, 03:46:05,VALID,1001.28,VALID,0,VALID,92.8677,VALID,0,VALID,23.0964,VALID,75,VALID,0,
2010-04-28, 03:47:05,VALID,1001.29,VALID,0,VALID,92.9593,VALID,0,VALID,23.1354,VALID,75,VALID,0,
2010-04-28, 03:48:05,VALID,1001.27,VALID,0,VALID,93.028,VALID,0,VALID,23.1744,VALID,39,VALID,0.798047,
2010-04-28, 03:49:05,VALID,1001.28,VALID,0,VALID,93.0051,VALID,0,VALID,23.1744,VALID,39,VALID,0.787109,
2010-04-28, 03:50:05,VALID,1001.25,VALID,0,VALID,93.0127,VALID,0,VALID,23.1744,VALID,39,VALID,0.745313,
2010-04-28, 03:51:05,VALID,1001.28,VALID,0,VALID,92.9898,VALID,0,VALID,23.1939,VALID,39,VALID,0.683203,
2010-04-28, 03:52:05,VALID,1001.27,VALID,0,VALID,92.8754,VALID,0,VALID,23.1549,VALID,39,VALID,0.539063,
2010-04-28, 03:53:05,VALID,1001.27,VALID,0,VALID,92.8448,VALID,0,VALID,23.1159,VALID,39,VALID,0.567969,
2010-04-28, 03:54:05,VALID,1001.25,VALID,0,VALID,92.8296,VALID,0,VALID,23.0964,VALID,39,VALID,0.46875,
2010-04-28, 03:55:05,VALID,1001.26,VALID,0,VALID,92.6541,VALID,0,VALID,23.0573,VALID,39,VALID,0.0195313,